[Date Prev][Date Next][Thread Prev][Thread Next] - [Date Index][Thread Index][Author Index]
2 Line ISS Keps 5-31
- Subject: [sarex] 2 Line ISS Keps 5-31
- From: "Dave Larsen PhD" <doc@xxxxxxxxxxx>
- Date: Mon, 31 May 2004 05:58:17 -0700
ISS
1 25544U 98067A 04152.44598380 .00016693 00000-0 14871-3 0 8968
2 25544 51.6330 51.0615 0005929 175.4048 173.0777 15.68593039315686
----
Via the sarex mailing list at AMSAT.ORG courtesy of AMSAT-NA.
To unsubscribe, send "unsubscribe sarex" to Majordomo@amsat.org
AMSAT Home